"startDT [UTC]","vpos","CH4 [ppm]","stdev(CH4) [ppm]","CO2 [ppm]","stdev(CO2) [ppm]","H2O_reported [%]","stdev(H2O_reported)","CavityPressure [torr]","CavityTemp [C]","OutletValve","CH4_dry [ppm]","CO2_dry [ppm]","DasTemp [C]","EtalonTemp [C]","WarmBoxTemp [C]","MPVPosition","T_ECpre [C]","T_EC1 [C]","T_EC2 [C]","p_inlet [hPa]","p_in [hPa]","p_out [hPa]","T_inlet [C]","RH_inlet [%]","dwpt_inlet [C]","T_vent [C]","RH_vent [%]","dwpt_vent [C]","flow_vent [l min-1]","flow_inlet [l min-1]","dwpt_sample [C]","T_room [C]"
2015-10-29 00:00:00,0.0,1.95410,0.00052,405.576,0.046,0.3309,0.0019,139.999,45.000,31147.81271,1.96057,407.205,27.372,45.072,45.000,0.00,0.09,-272.73,-272.78,3,500,-928,11.9,18.2,-11.5,12.3,18.1,-11.3,5.73,2.07,-14.6,19.2
2015-10-29 00:01:00,0.0,1.95421,0.00072,405.613,0.050,0.3329,0.0027,139.998,45.000,31149.78274,1.96064,407.253,27.376,45.072,45.000,0.00,0.09,-272.72,-272.78,3,500,-928,11.9,18.3,-11.5,12.3,18.1,-11.3,5.73,2.07,-14.5,19.1
2015-10-29 00:02:00,0.0,1.95420,0.00056,405.611,0.058,0.3334,0.0020,140.000,45.000,31148.55216,1.96068,407.255,27.380,45.072,45.000,0.00,0.09,-272.72,-272.77,3,500,-928,11.9,18.4,-11.4,12.3,18.3,-11.2,5.73,2.05,-14.6,19.1
2015-10-29 00:03:00,0.0,1.95410,0.00054,405.629,0.048,0.3316,0.0017,139.999,45.000,31149.43065,1.96053,407.260,27.393,45.072,45.000,0.00,0.09,-272.72,-272.79,3,500,-928,11.9,18.3,-11.5,12.3,18.2,-11.2,5.73,2.04,-14.5,19.1
2015-10-29 00:04:00,0.0,1.95444,0.00029,405.617,0.030,0.3320,0.0019,140.001,44.998,31152.05001,1.96089,407.252,27.392,45.072,45.000,0.00,0.09,-272.72,-272.78,3,500,-928,11.9,18.4,-11.4,12.3,18.2,-11.2,5.73,2.02,-14.6,19.1
2015-10-29 00:05:00,0.0,1.95431,0.00048,405.604,0.036,0.3318,0.0018,140.000,44.999,31145.69001,1.96075,407.238,27.417,45.071,45.000,0.00,0.09,-272.71,-272.77,3,500,-928,11.9,18.3,-11.4,12.3,18.2,-11.2,5.73,2.03,-14.5,19.1
2015-10-29 00:06:00,0.0,1.95405,0.00060,405.610,0.029,0.3319,0.0025,140.000,45.000,31143.99731,1.96044,407.242,27.417,45.071,44.999,0.00,0.09,-272.73,-272.77,3,500,-928,11.9,18.3,-11.5,12.3,18.2,-11.3,5.73,2.02,-14.6,19.1
2015-10-29 00:07:00,0.0,1.95480,0.00047,405.607,0.031,0.3342,0.0022,139.997,45.000,31138.83612,1.96130,407.252,27.436,45.071,45.000,0.00,0.09,-272.72,-272.77,3,500,-928,11.9,18.4,-11.4,12.3,18.2,-11.2,5.73,2.03,-14.5,19.2
2015-10-29 00:08:00,0.0,1.95441,0.00055,405.613,0.040,0.3334,0.0022,139.998,44.998,31133.09884,1.96089,407.255,27.440,45.071,45.000,0.00,0.09,-272.72,-272.76,3,500,-929,11.9,18.4,-11.4,12.3,18.3,-11.2,5.73,2.04,-14.5,19.1
2015-10-29 00:09:00,0.0,1.95392,0.00044,405.609,0.030,0.3308,0.0023,140.003,44.997,31129.91814,1.96037,407.238,27.456,45.071,45.000,0.00,0.09,-272.72,-272.77,2,500,-929,11.9,18.2,-11.5,12.3,18.1,-11.3,5.73,2.06,-14.6,19.1
2015-10-29 00:10:00,0.0,1.95403,0.00054,405.610,0.029,0.3291,0.0021,139.998,44.996,31124.84083,1.96039,407.230,27.439,45.071,45.000,0.00,0.09,-272.73,-272.77,3,500,-928,11.9,18.2,-11.6,12.3,18.0,-11.3,5.73,2.08,-14.6,19.1
2015-10-29 00:11:00,0.0,1.95392,0.00028,405.635,0.031,0.3293,0.0018,140.000,44.997,31120.77443,1.96034,407.256,27.438,45.071,45.000,0.00,0.09,-272.72,-272.77,3,500,-928,11.9,18.2,-11.6,12.3,18.0,-11.3,5.73,2.08,-14.6,19.1
2015-10-29 00:12:00,0.0,1.95452,0.00068,405.637,0.027,0.3299,0.0029,139.998,44.997,31116.73338,1.96089,407.261,27.440,45.071,45.000,0.00,0.09,-272.71,-272.77,3,500,-929,11.9,18.2,-11.6,12.3,18.0,-11.4,5.73,2.09,-14.5,19.1
2015-10-29 00:13:00,0.0,1.95472,0.00063,405.610,0.031,0.3311,0.0022,140.000,44.998,31113.59066,1.96115,407.240,27.438,45.072,45.000,0.00,0.09,-272.73,-272.78,3,500,-928,11.9,18.3,-11.5,12.3,18.1,-11.3,5.73,2.08,-14.5,19.2
2015-10-29 00:14:00,0.0,1.95443,0.00048,405.613,0.032,0.3292,0.0023,140.000,44.998,31111.00311,1.96077,407.234,27.427,45.072,45.000,0.00,0.09,-272.72,-272.78,3,500,-928,11.9,18.2,-11.5,12.3,18.1,-11.3,5.73,2.07,-14.6,19.2
2015-10-29 00:15:00,0.0,1.95460,0.00043,405.632,0.025,0.3311,0.0022,139.999,44.998,31108.25790,1.96107,407.261,27.404,45.072,45.000,0.00,0.09,-272.71,-272.77,3,500,-928,11.9,18.2,-11.5,12.3,18.1,-11.3,5.73,2.06,-14.5,19.1
2015-10-29 00:16:00,0.0,1.95455,0.00041,405.620,0.036,0.3313,0.0019,140.000,44.998,31109.61158,1.96098,407.252,27.421,45.072,45.001,0.00,0.09,-272.72,-272.78,3,500,-928,11.9,18.3,-11.5,12.3,18.1,-11.3,5.73,2.05,-14.5,19.2
2015-10-29 00:17:00,0.0,1.95473,0.00059,405.622,0.038,0.3332,0.0017,140.001,44.998,31109.24054,1.96122,407.262,27.403,45.072,45.000,0.00,0.09,-272.72,-272.78,3,500,-928,11.9,18.4,-11.4,12.3,18.2,-11.2,5.73,2.02,-14.6,19.2
2015-10-29 00:18:00,0.0,1.95408,0.00041,405.619,0.027,0.3310,0.0022,139.999,44.998,31107.09688,1.96050,407.248,27.436,45.072,45.000,0.00,0.09,-272.71,-272.78,3,500,-928,11.9,18.3,-11.5,12.3,18.2,-11.2,5.73,2.02,-14.5,19.2
2015-10-29 00:19:00,0.0,1.95397,0.00040,405.604,0.029,0.3301,0.0013,139.998,44.999,31107.75604,1.96038,407.229,27.435,45.072,45.000,0.00,0.09,-272.72,-272.77,2,500,-928,11.9,18.2,-11.5,12.3,18.1,-11.3,5.73,2.02,-14.5,19.1
2015-10-29 00:20:00,0.0,1.95399,0.00051,405.605,0.037,0.3304,0.0020,139.996,44.999,31105.70196,1.96042,407.232,27.438,45.072,45.000,0.00,0.09,-272.73,-272.77,3,500,-928,11.9,18.2,-11.5,12.3,18.1,-11.3,5.73,2.03,-14.6,19.1
2015-10-29 00:21:00,0.0,1.95395,0.00060,405.609,0.033,0.3302,0.0017,139.998,44.999,31102.48554,1.96033,407.235,27.435,45.072,45.000,0.00,0.09,-272.72,-272.77,2,500,-928,11.9,18.2,-11.6,12.3,18.1,-11.3,5.73,2.04,-14.6,19.2
2015-10-29 00:22:00,0.0,1.95413,0.00045,405.604,0.035,0.3304,0.0014,140.001,44.999,31103.96173,1.96053,407.230,27.429,45.072,45.000,0.00,0.09,-272.72,-272.76,3,500,-928,11.9,18.2,-11.5,12.3,18.1,-11.3,5.73,2.06,-14.5,19.2
2015-10-29 00:23:00,0.0,1.95383,0.00057,405.590,0.029,0.3315,0.0015,140.000,45.000,31103.76916,1.96028,407.224,27.429,45.072,45.000,0.00,0.09,-272.73,-272.78,3,500,-928,11.9,18.3,-11.5,12.3,18.1,-11.3,5.73,2.08,-14.5,19.2
2015-10-29 00:24:00,0.0,1.95422,0.00045,405.587,0.038,0.3327,0.0016,140.000,45.000,31102.98044,1.96069,407.223,27.438,45.072,45.000,0.00,0.09,-272.72,-272.78,3,500,-928,11.9,18.4,-11.4,12.3,18.2,-11.2,5.73,2.09,-14.5,19.2
2015-10-29 00:25:00,0.0,1.95499,0.00067,405.588,0.033,0.3353,0.0019,139.999,45.000,31101.25397,1.96149,407.240,27.438,45.072,45.000,0.00,0.09,-272.71,-272.77,3,500,-928,11.9,18.5,-11.4,12.3,18.3,-11.2,5.73,2.09,-14.5,19.1
2015-10-29 00:26:00,0.0,1.95439,0.00039,405.581,0.028,0.3343,0.0014,140.001,45.000,31101.14213,1.96087,407.226,27.436,45.072,45.000,0.00,0.09,-272.72,-272.77,3,500,-928,11.9,18.5,-11.3,12.3,18.3,-11.1,5.73,2.09,-14.5,19.2
2015-10-29 00:27:00,0.0,1.95471,0.00052,405.584,0.022,0.3374,0.0018,139.999,45.000,31102.13423,1.96126,407.244,27.428,45.072,45.000,0.00,0.09,-272.72,-272.79,3,500,-928,11.9,18.6,-11.3,12.3,18.4,-11.1,5.73,2.07,-14.5,19.2
2015-10-29 00:28:00,0.0,1.95450,0.00050,405.580,0.037,0.3364,0.0023,140.000,45.000,31100.23146,1.96102,407.236,27.426,45.072,45.000,0.00,0.09,-272.71,-272.78,3,500,-928,11.9,18.6,-11.3,12.3,18.4,-11.1,5.73,2.04,-14.5,19.2
2015-10-29 00:29:00,0.0,1.95443,0.00064,405.603,0.031,0.3367,0.0016,139.999,45.000,31099.87636,1.96095,407.261,27.432,45.072,45.000,0.00,0.09,-272.72,-272.77,3,500,-928,11.9,18.6,-11.3,12.3,18.4,-11.1,5.73,2.04,-14.5,19.2
2015-10-29 00:30:00,0.0,1.95448,0.00074,405.584,0.027,0.3376,0.0018,140.000,45.000,31100.52031,1.96108,407.248,27.437,45.072,45.000,0.00,0.09,-272.72,-272.78,3,500,-928,11.9,18.7,-11.2,12.3,18.5,-11.0,5.73,2.02,-14.5,19.2
2015-10-29 00:31:00,0.0,1.95420,0.00049,405.576,0.028,0.3376,0.0016,140.001,45.000,31099.97571,1.96076,407.239,27.438,45.072,45.000,0.00,0.09,-272.72,-272.78,3,500,-928,11.9,18.7,-11.2,12.3,18.5,-11.0,5.73,2.02,-14.5,19.2
2015-10-29 00:32:00,0.0,1.95411,0.00047,405.566,0.032,0.3368,0.0021,140.001,45.000,31099.96164,1.96063,407.223,27.438,45.072,45.000,0.00,0.09,-272.72,-272.77,3,500,-928,11.9,18.6,-11.2,12.3,18.5,-11.0,5.73,2.02,-14.5,19.1
2015-10-29 00:33:00,0.0,1.95493,0.00052,405.586,0.038,0.3389,0.0023,139.998,45.000,31097.62494,1.96151,407.254,27.451,45.072,45.000,0.00,0.09,-272.73,-272.78,3,500,-928,11.9,18.7,-11.2,12.3,18.5,-11.0,5.73,2.04,-14.5,19.2
2015-10-29 00:34:00,0.0,1.95444,0.00044,405.600,0.032,0.3387,0.0011,140.000,45.000,31097.85482,1.96102,407.268,27.444,45.072,45.000,0.00,0.09,-272.73,-272.78,3,500,-928,11.9,18.7,-11.2,12.3,18.5,-11.0,5.73,2.06,-14.5,19.2
2015-10-29 00:35:00,0.0,1.95490,0.00044,405.589,0.029,0.3387,0.0022,139.998,45.000,31096.49327,1.96145,407.258,27.442,45.072,45.000,0.00,0.09,-272.72,-272.77,3,500,-928,11.9,18.7,-11.2,12.3,18.5,-11.0,5.73,2.07,-14.5,19.2
2015-10-29 00:36:00,0.0,1.95507,0.00057,405.594,0.032,0.3402,0.0014,139.998,45.000,31094.93332,1.96167,407.268,27.448,45.072,45.000,0.00,0.09,-272.72,-272.78,2,500,-928,11.9,18.8,-11.1,12.3,18.6,-10.9,5.73,2.09,-14.5,19.1
2015-10-29 00:37:00,0.0,1.95484,0.00049,405.589,0.033,0.3394,0.0026,140.001,45.000,31095.59183,1.96144,407.260,27.463,45.072,45.000,0.00,0.09,-272.72,-272.79,3,500,-928,11.9,18.8,-11.1,12.3,18.6,-10.9,5.73,2.09,-14.5,19.1
2015-10-29 00:38:00,0.0,1.95497,0.00054,405.605,0.032,0.3411,0.0019,139.999,45.000,31094.86267,1.96159,407.283,27.474,45.072,45.000,0.00,0.09,-272.72,-272.77,2,500,-928,11.9,18.8,-11.2,12.3,18.6,-10.9,5.73,2.08,-14.5,19.1
2015-10-29 00:39:00,0.0,1.95531,0.00068,405.614,0.036,0.3414,0.0020,140.001,45.000,31094.77633,1.96197,407.297,27.473,45.071,45.000,0.00,0.09,-272.72,-272.77,2,500,-928,11.9,18.9,-11.1,12.3,18.7,-10.9,5.73,2.07,-14.5,19.1
2015-10-29 00:40:00,0.0,1.95474,0.00063,405.608,0.030,0.3399,0.0017,140.000,45.000,31095.60970,1.96136,407.281,27.465,45.071,45.000,0.00,0.09,-272.72,-272.78,3,500,-928,11.9,18.8,-11.1,12.3,18.6,-10.9,5.73,2.05,-14.5,19.1
2015-10-29 00:41:00,0.0,1.95416,0.00055,405.593,0.045,0.3370,0.0025,139.997,45.000,31094.46749,1.96067,407.253,27.460,45.071,45.000,0.00,0.09,-272.71,-272.78,3,500,-928,11.9,18.7,-11.2,12.3,18.6,-11.0,5.73,2.03,-14.5,19.1
2015-10-29 00:42:00,0.0,1.95504,0.00061,405.600,0.036,0.3406,0.0022,140.000,45.000,31094.09371,1.96168,407.278,27.462,45.072,45.000,0.00,0.09,-272.72,-272.78,2,500,-928,11.9,18.8,-11.2,12.3,18.6,-11.0,5.73,2.02,-14.5,19.1
2015-10-29 00:43:00,0.0,1.95458,0.00048,405.610,0.032,0.3380,0.0017,139.999,45.000,31093.84223,1.96112,407.274,27.486,45.072,45.000,0.00,0.09,-272.72,-272.77,2,500,-928,11.9,18.7,-11.2,12.3,18.5,-11.0,5.73,2.01,-14.5,19.1
2015-10-29 00:44:00,0.0,1.95420,0.00036,405.598,0.026,0.3366,0.0016,139.999,45.000,31093.89459,1.96075,407.256,27.499,45.072,45.000,0.00,0.09,-272.72,-272.78,2,500,-928,11.9,18.6,-11.3,12.3,18.5,-11.0,5.73,2.02,-14.5,19.2
2015-10-29 00:45:00,0.0,1.95425,0.00048,405.594,0.028,0.3382,0.0024,140.000,45.000,31095.49345,1.96083,407.259,27.497,45.071,45.000,0.00,0.09,-272.72,-272.77,2,500,-928,11.9,18.7,-11.2,12.3,18.5,-11.0,5.73,2.05,-14.5,19.2
2015-10-29 00:46:00,0.0,1.95385,0.00071,405.574,0.039,0.3372,0.0021,139.998,45.000,31096.78354,1.96035,407.234,27.496,45.071,45.000,0.00,0.09,-272.72,-272.77,2,500,-928,11.9,18.7,-11.2,12.3,18.5,-11.0,5.73,2.07,-14.5,19.2
2015-10-29 00:47:00,0.0,1.95433,0.00038,405.579,0.038,0.3382,0.0021,140.001,45.000,31095.68571,1.96091,407.244,27.496,45.072,45.000,0.00,0.09,-272.73,-272.77,2,500,-928,11.9,18.7,-11.2,12.3,18.5,-11.0,5.73,2.09,-14.5,19.1
2015-10-29 00:48:00,0.0,1.95445,0.00064,405.593,0.024,0.3393,0.0018,140.000,45.000,31094.03705,1.96106,407.263,27.491,45.072,45.000,0.00,0.09,-272.73,-272.77,2,500,-928,11.9,18.7,-11.2,12.3,18.5,-11.0,5.73,2.09,-14.5,19.1
2015-10-29 00:49:00,0.0,1.95437,0.00079,405.581,0.032,0.3371,0.0026,139.999,45.000,31093.84470,1.96088,407.241,27.497,45.072,45.000,0.00,0.09,-272.72,-272.77,2,500,-928,11.9,18.7,-11.2,12.3,18.5,-11.0,5.73,2.10,-14.5,19.1
2015-10-29 00:50:00,0.0,1.95418,0.00074,405.572,0.038,0.3376,0.0023,140.001,45.000,31096.12538,1.96074,407.235,27.500,45.072,45.000,0.00,0.09,-272.72,-272.78,2,500,-928,11.9,18.7,-11.2,12.3,18.5,-11.0,5.73,2.07,-14.5,19.1
2015-10-29 00:51:00,0.0,1.95432,0.00039,405.571,0.043,0.3384,0.0018,139.999,45.000,31096.27495,1.96093,407.238,27.500,45.072,45.000,0.00,0.09,-272.72,-272.78,2,500,-928,11.9,18.7,-11.2,12.3,18.5,-11.0,5.73,2.05,-14.5,19.1
2015-10-29 00:52:00,0.0,1.95393,0.00059,405.559,0.036,0.3369,0.0017,139.999,45.000,31096.00914,1.96044,407.217,27.496,45.072,45.000,0.00,0.09,-272.71,-272.77,2,500,-928,11.9,18.6,-11.3,12.3,18.5,-11.0,5.73,2.03,-14.5,19.2
2015-10-29 00:53:00,0.0,1.95409,0.00058,405.571,0.031,0.3382,0.0018,140.000,45.000,31094.69582,1.96062,407.235,27.474,45.072,45.000,0.00,0.09,-272.71,-272.77,2,500,-928,11.9,18.7,-11.2,12.3,18.5,-11.0,5.73,2.01,-14.5,19.1
2015-10-29 00:54:00,0.0,1.95377,0.00049,405.550,0.037,0.3370,0.0018,139.997,45.000,31095.11971,1.96038,407.211,27.448,45.072,45.000,0.00,0.09,-272.72,-272.78,2,500,-928,11.9,18.6,-11.3,12.3,18.5,-11.0,5.73,2.01,-14.5,19.1
2015-10-29 00:55:00,0.0,1.95431,0.00061,405.558,0.036,0.3378,0.0024,140.000,45.000,31095.28295,1.96084,407.221,27.441,45.072,45.000,0.00,0.09,-272.71,-272.77,3,500,-928,11.9,18.7,-11.3,12.3,18.5,-11.0,5.73,2.03,-14.5,19.1
2015-10-29 00:56:00,0.0,1.95381,0.00061,405.541,0.039,0.3384,0.0017,140.000,45.000,31093.99325,1.96039,407.206,27.438,45.072,45.000,0.00,0.09,-272.72,-272.77,2,500,-928,11.9,18.7,-11.2,12.3,18.5,-11.0,5.73,2.06,-14.5,19.2
2015-10-29 00:57:00,0.0,1.95372,0.00058,405.535,0.030,0.3388,0.0016,139.998,45.000,31094.59378,1.96027,407.205,27.438,45.072,45.000,0.00,0.09,-272.73,-272.78,2,500,-928,11.9,18.7,-11.2,12.3,18.5,-11.0,5.73,2.07,-14.5,19.2
2015-10-29 00:58:00,0.0,1.95374,0.00049,405.518,0.034,0.3393,0.0026,139.998,45.000,31093.92900,1.96035,407.187,27.439,45.072,45.000,0.00,0.09,-272.73,-272.77,2,500,-928,11.9,18.7,-11.2,12.3,18.5,-11.0,5.73,2.10,-14.5,19.2
2015-10-29 00:59:00,0.0,1.95400,0.00047,405.538,0.029,0.3391,0.0020,139.998,45.000,31094.16360,1.96052,407.207,27.440,45.072,45.000,0.00,0.09,-272.72,-272.77,2,500,-928,11.9,18.8,-11.2,12.3,18.6,-11.0,5.73,2.10,-14.5,19.1
2015-10-29 01:00:00,0.0,1.95415,0.00049,405.557,0.028,0.3411,0.0019,140.000,45.000,31092.14885,1.96080,407.238,27.444,45.072,45.000,0.00,0.09,-272.72,-272.77,2,500,-928,11.9,18.9,-11.1,12.3,18.7,-10.9,5.73,2.08,-14.5,19.2
2015-10-29 01:01:00,0.0,1.95392,0.00054,405.531,0.036,0.3402,0.0016,140.001,45.000,31094.48510,1.96055,407.206,27.468,45.072,45.000,0.00,0.09,-272.72,-272.78,2,500,-928,11.9,18.8,-11.1,12.3,18.7,-10.9,5.73,2.05,-14.5,19.1
2015-10-29 01:02:00,0.0,1.95351,0.00045,405.528,0.026,0.3379,0.0025,140.002,45.000,31094.33222,1.96008,407.192,27.496,45.072,45.000,0.00,0.09,-272.71,-272.77,2,500,-928,11.9,18.8,-11.2,12.3,18.6,-11.0,5.73,2.03,-14.5,19.1
2015-10-29 01:03:00,0.0,1.95392,0.00072,405.550,0.017,0.3390,0.0017,139.998,45.000,31093.81488,1.96049,407.219,27.471,45.071,45.000,0.00,0.09,-272.72,-272.77,2,500,-928,11.9,18.7,-11.2,12.3,18.5,-11.0,5.73,2.01,-14.5,19.2
2015-10-29 01:04:00,0.0,1.95348,0.00040,405.545,0.044,0.3372,0.0016,139.998,45.000,31094.26503,1.96004,407.205,27.440,45.072,45.000,0.00,0.09,-272.71,-272.78,2,500,-928,11.9,18.7,-11.2,12.3,18.5,-11.0,5.73,2.01,-14.5,19.2
2015-10-29 01:05:00,0.0,1.95366,0.00050,405.555,0.035,0.3381,0.0020,140.000,45.000,31095.05004,1.96021,407.219,27.438,45.071,45.000,0.00,0.09,-272.71,-272.77,2,500,-928,11.9,18.7,-11.2,12.3,18.5,-11.0,5.73,2.02,-14.5,19.2
2015-10-29 01:06:00,0.0,1.95365,0.00046,405.538,0.038,0.3379,0.0022,139.999,45.000,31094.49703,1.96021,407.202,27.439,45.072,45.000,0.00,0.09,-272.71,-272.77,2,500,-928,11.9,18.7,-11.2,12.3,18.5,-11.0,5.73,2.06,-14.5,19.2
2015-10-29 01:07:00,0.0,1.95374,0.00045,405.556,0.034,0.3378,0.0019,139.999,45.000,31093.47693,1.96034,407.220,27.422,45.072,45.000,0.00,0.09,-272.73,-272.78,2,500,-928,11.9,18.7,-11.2,12.3,18.5,-11.0,5.73,2.08,-14.5,19.2
2015-10-29 01:08:00,0.0,1.95391,0.00076,405.526,0.040,0.3366,0.0016,139.997,45.000,31093.80476,1.96037,407.182,27.398,45.072,45.000,0.00,0.09,-272.72,-272.78,2,500,-928,11.9,18.6,-11.3,12.3,18.4,-11.1,5.73,2.09,-14.5,19.2
2015-10-29 01:09:00,0.0,1.95368,0.00046,405.546,0.027,0.3379,0.0021,140.001,45.000,31095.61167,1.96030,407.208,27.401,45.072,45.000,0.00,0.09,-272.71,-272.77,2,500,-928,11.9,18.7,-11.2,12.3,18.5,-11.0,5.73,2.10,-14.5,19.2
2015-10-29 01:10:00,0.0,1.95331,0.00045,405.551,0.037,0.3358,0.0021,140.001,45.000,31095.72870,1.95985,407.207,27.396,45.072,45.000,0.00,0.09,-272.72,-272.78,2,500,-928,11.9,18.6,-11.3,12.3,18.5,-11.1,5.73,2.08,-14.5,19.2
2015-10-29 01:11:00,0.0,1.95351,0.00056,405.534,0.031,0.3354,0.0030,140.001,45.000,31095.74103,1.95996,407.183,27.396,45.072,45.000,0.00,0.09,-272.73,-272.78,2,500,-928,11.9,18.5,-11.3,12.3,18.4,-11.1,5.73,2.05,-14.5,19.2
2015-10-29 01:12:00,0.0,1.95366,0.00031,405.549,0.030,0.3377,0.0019,139.998,45.000,31094.21991,1.96022,407.212,27.429,45.072,45.000,0.00,0.09,-272.72,-272.77,2,500,-928,11.9,18.7,-11.2,12.3,18.5,-11.0,5.73,2.02,-14.5,19.2
2015-10-29 01:13:00,0.0,1.95373,0.00060,405.518,0.029,0.3381,0.0019,140.000,45.000,31094.26899,1.96028,407.181,27.416,45.072,45.000,0.00,0.09,-272.72,-272.77,2,500,-928,11.9,18.7,-11.2,12.3,18.5,-11.0,5.73,2.01,-14.4,19.2
2015-10-29 01:14:00,0.0,1.95377,0.00046,405.557,0.028,0.3371,0.0016,140.000,45.000,31093.30358,1.96032,407.217,27.416,45.072,45.000,0.00,0.09,-272.73,-272.78,3,500,-928,11.9,18.7,-11.3,12.3,18.5,-11.0,5.73,2.01,-14.5,19.2
2015-10-29 01:15:00,0.0,1.95354,0.00050,405.548,0.035,0.3368,0.0027,140.001,45.000,31095.02257,1.96009,407.207,27.412,45.071,45.000,0.00,0.09,-272.72,-272.77,3,500,-928,11.9,18.6,-11.3,12.3,18.5,-11.1,5.73,2.03,-14.5,19.1
2015-10-29 01:16:00,0.0,1.95353,0.00057,405.555,0.045,0.3370,0.0028,139.998,45.000,31094.54001,1.96011,407.214,27.392,45.071,45.000,0.00,0.09,-272.72,-272.77,3,500,-928,11.9,18.6,-11.3,12.3,18.5,-11.1,5.73,2.06,-14.5,19.1
2015-10-29 01:17:00,0.0,1.95390,0.00046,405.559,0.034,0.3370,0.0011,139.999,45.000,31093.79872,1.96039,407.218,27.379,45.072,45.000,0.00,0.09,-272.73,-272.77,3,500,-928,11.9,18.6,-11.3,12.3,18.4,-11.1,5.73,2.09,-14.5,19.1
2015-10-29 01:18:00,0.0,1.95404,0.00050,405.543,0.023,0.3378,0.0018,140.000,45.000,31093.53975,1.96059,407.205,27.405,45.072,45.000,0.00,0.09,-272.72,-272.77,3,500,-928,11.9,18.7,-11.3,12.3,18.5,-11.0,5.73,2.09,-14.4,19.1
2015-10-29 01:19:00,0.0,1.95368,0.00066,405.532,0.027,0.3370,0.0016,139.999,45.000,31093.42828,1.96025,407.193,27.423,45.072,45.000,0.00,0.09,-272.72,-272.77,3,500,-928,11.9,18.6,-11.3,12.3,18.5,-11.0,5.73,2.10,-14.5,19.1
2015-10-29 01:20:00,0.0,1.95348,0.00054,405.529,0.032,0.3350,0.0015,140.001,45.000,31094.33543,1.95996,407.178,27.429,45.072,45.000,0.00,0.09,-272.72,-272.78,3,500,-928,11.9,18.5,-11.3,12.3,18.4,-11.1,5.73,2.07,-14.5,19.1
2015-10-29 01:21:00,0.0,1.95349,0.00078,405.562,0.033,0.3339,0.0022,139.998,45.000,31092.17079,1.96001,407.205,27.429,45.071,45.000,0.00,0.09,-272.72,-272.78,3,500,-928,11.9,18.5,-11.4,12.3,18.3,-11.1,5.73,2.04,-14.4,19.1
2015-10-29 01:22:00,0.0,1.95310,0.00049,405.534,0.036,0.3316,0.0019,139.999,45.000,31095.12284,1.95952,407.166,27.429,45.071,45.000,0.00,0.09,-272.71,-272.77,3,500,-928,11.9,18.4,-11.5,12.3,18.2,-11.2,5.73,2.02,-14.4,19.1
2015-10-29 01:23:00,0.0,1.95371,0.00037,405.544,0.031,0.3351,0.0022,139.999,45.000,31094.91025,1.96017,407.194,27.427,45.071,45.000,0.00,0.09,-272.72,-272.77,3,500,-928,11.9,18.5,-11.4,12.3,18.3,-11.2,5.73,2.01,-14.5,19.1
2015-10-29 01:24:00,0.0,1.95369,0.00048,405.534,0.032,0.3357,0.0018,140.000,45.000,31095.04349,1.96026,407.186,27.412,45.071,45.000,0.00,0.09,-272.72,-272.78,3,500,-928,11.9,18.6,-11.3,12.3,18.4,-11.1,5.73,2.01,-14.4,19.2
2015-10-29 01:25:00,0.0,1.95387,0.00048,405.545,0.024,0.3354,0.0017,139.999,45.000,31091.69048,1.96036,407.195,27.417,45.072,45.000,0.00,0.09,-272.72,-272.77,3,500,-928,11.9,18.6,-11.3,12.3,18.4,-11.1,5.73,2.04,-14.5,19.1
2015-10-29 01:26:00,0.0,1.95355,0.00054,405.567,0.039,0.3356,0.0021,140.001,45.000,31089.88821,1.96008,407.219,27.433,45.072,45.000,0.00,0.09,-272.72,-272.77,2,500,-928,11.9,18.5,-11.4,12.3,18.4,-11.1,5.73,2.08,-14.4,19.1
2015-10-29 01:27:00,0.0,1.95405,0.00071,405.582,0.032,0.3363,0.0027,139.999,45.000,31090.89220,1.96053,407.237,27.437,45.072,45.000,0.00,0.09,-272.72,-272.78,3,500,-928,11.9,18.5,-11.3,12.3,18.4,-11.1,5.73,2.09,-14.4,19.2
2015-10-29 01:28:00,0.0,1.95367,0.00045,405.592,0.033,0.3348,0.0021,140.000,45.000,31089.59708,1.96021,407.242,27.435,45.072,45.000,0.00,0.09,-272.73,-272.77,2,500,-928,11.9,18.5,-11.3,12.3,18.4,-11.1,5.73,2.10,-14.5,19.1
2015-10-29 01:29:00,0.0,1.95339,0.00049,405.572,0.035,0.3333,0.0021,139.999,45.000,31090.29143,1.95985,407.211,27.435,45.072,45.000,0.00,0.09,-272.72,-272.77,2,500,-928,11.9,18.4,-11.4,12.2,18.3,-11.2,5.73,2.09,-14.4,19.2
2015-10-29 01:30:00,0.0,1.95370,0.00063,405.586,0.025,0.3329,0.0016,140.000,45.000,31091.27680,1.96015,407.227,27.436,45.072,45.000,0.00,0.09,-272.72,-272.77,2,500,-928,11.9,18.4,-11.4,12.3,18.3,-11.2,5.73,2.06,-14.4,19.2
2015-10-29 01:31:00,0.0,1.95419,0.00054,405.577,0.029,0.3356,0.0020,139.998,45.000,31091.11167,1.96066,407.228,27.437,45.072,45.000,0.00,0.09,-272.73,-272.77,3,500,-928,11.9,18.5,-11.3,12.3,18.3,-11.1,5.73,2.03,-14.5,19.2
2015-10-29 01:32:00,0.0,1.95381,0.00068,405.570,0.029,0.3367,0.0024,139.999,45.000,31091.33328,1.96038,407.228,27.438,45.072,45.000,0.00,0.09,-272.72,-272.77,2,500,-928,11.9,18.6,-11.3,12.3,18.4,-11.1,5.73,2.01,-14.4,19.1
2015-10-29 01:33:00,0.0,1.95334,0.00046,405.596,0.026,0.3351,0.0016,140.000,45.000,31090.75299,1.95985,407.245,27.439,45.071,45.000,0.00,0.09,-272.72,-272.77,2,500,-928,11.9,18.5,-11.3,12.3,18.4,-11.1,5.73,2.01,-14.4,19.2
2015-10-29 01:34:00,0.0,1.95372,0.00064,405.585,0.032,0.3344,0.0026,140.004,45.000,31092.76902,1.96020,407.230,27.449,45.072,45.000,0.00,0.09,-272.72,-272.78,2,500,-928,11.9,18.5,-11.4,12.3,18.3,-11.1,5.73,2.03,-14.4,19.1
2015-10-29 01:35:00,0.0,1.95376,0.00038,405.605,0.039,0.3371,0.0019,139.999,45.000,31093.09369,1.96032,407.265,27.471,45.072,45.000,0.00,0.09,-272.72,-272.78,2,500,-928,11.9,18.6,-11.3,12.3,18.4,-11.1,5.73,2.05,-14.4,19.1
2015-10-29 01:36:00,0.0,1.95388,0.00053,405.623,0.032,0.3364,0.0016,139.998,45.000,31090.77919,1.96037,407.279,27.467,45.071,45.000,0.00,0.09,-272.72,-272.77,2,500,-928,11.9,18.6,-11.3,12.3,18.4,-11.1,5.73,2.09,-14.4,19.1
2015-10-29 01:37:00,0.0,1.95343,0.00093,405.591,0.053,0.3366,0.0026,139.998,45.000,31092.51100,1.96002,407.249,27.451,45.071,45.000,0.00,0.09,-272.72,-272.77,3,500,-928,11.9,18.6,-11.3,12.3,18.5,-11.1,5.73,2.09,-14.4,19.2
2015-10-29 01:38:00,0.0,1.95347,0.00056,405.585,0.027,0.3357,0.0018,139.999,45.000,31093.01459,1.95996,407.237,27.456,45.071,45.000,0.00,0.09,-272.72,-272.78,2,500,-928,11.9,18.5,-11.3,12.3,18.4,-11.1,5.73,2.10,-14.4,19.2
2015-10-29 01:39:00,0.0,1.95349,0.00067,405.614,0.032,0.3330,0.0021,140.000,45.000,31092.29777,1.95990,407.253,27.456,45.072,45.000,0.00,0.09,-272.72,-272.77,2,500,-928,11.9,18.4,-11.4,12.3,18.3,-11.2,5.73,2.07,-14.4,19.1
2015-10-29 01:40:00,0.0,1.95324,0.00079,405.592,0.033,0.3362,0.0031,139.999,45.000,31092.58870,1.95979,407.249,27.451,45.072,45.000,0.00,0.09,-272.72,-272.77,3,500,-928,11.9,18.6,-11.3,12.3,18.4,-11.1,5.73,2.04,-14.4,19.1
2015-10-29 01:41:00,0.0,1.95355,0.00058,405.605,0.032,0.3355,0.0020,140.001,45.000,31093.39758,1.96006,407.256,27.438,45.072,45.000,0.00,0.09,-272.73,-272.77,3,500,-928,11.9,18.5,-11.3,12.3,18.4,-11.1,5.73,2.01,-14.4,19.1
2015-10-29 01:42:00,0.0,1.95344,0.00072,405.597,0.032,0.3370,0.0020,140.000,45.000,31095.78868,1.95996,407.257,27.439,45.072,45.000,0.00,0.09,-272.73,-272.77,3,500,-928,11.9,18.6,-11.3,12.3,18.4,-11.1,5.73,2.01,-14.4,19.1
2015-10-29 01:43:00,0.0,1.95319,0.00055,405.599,0.041,0.3376,0.0031,139.999,45.000,31095.55198,1.95979,407.260,27.439,45.072,45.000,0.00,0.09,-272.72,-272.77,3,500,-928,11.9,18.7,-11.2,12.3,18.5,-11.0,5.73,2.01,-14.4,19.1
2015-10-29 01:44:00,0.0,1.95321,0.00094,405.597,0.031,0.3351,0.0020,140.001,45.000,31097.58182,1.95963,407.246,27.447,45.072,45.000,0.00,0.09,-272.73,-272.78,3,500,-928,11.9,18.6,-11.3,12.3,18.4,-11.1,5.73,2.04,-14.4,19.1